MIR-SAT 1 (48868 NORAD) Tracking and Keplerian Element Data

This shows tracking and keplerian element data for the satellite.

Feedback or suggestion? Click here.




ElementValue
Catalog48868
NameMIR-SAT 1
Epoch Orbit1479
Epoch Day268.36124386
Epoch Year2021
RAAN205.9534
Inclination51.6413
Eccentricity0.000379
Argument of Perigee131.9968
Mean Anonmoly228.1345
Mean Motion15.52464827
Decay Rate0.00027742
L11 48868U 98067SP 21268.36124386 .00027742 00000-0 45103-3 0 9994
L22 48868 51.6413 205.9534 0003790 131.9968 228.1345 15.52464827 14790

Live tracking and technical data element details for MIR-SAT 1 (NORAD 48868). MIR-SAT 1 can be tracked NOW for your location showing map with azimuth and elevation plus other details from your city location.

Track the satellite on the map from your city or location and see movement details for azimuth, elevation, latitude, longitude, range, height, and movement on the map or in text.







IsCatalogInMostPopularTable: catalog: 48868, numindb: 21
Update: records affected: 1



GetName: 48868 MIR-SAT 1

Hit Count: updated at: Sun, 26 Sep 2021 16:12:00 GMT